SL-16 DEB, 22359

Orbit data source: Space-Track

SL-16 DEB, 22359 is space debris in LEO originally from a launch on Fri, 25 Dec 1992 UTC launched from the Tyuratam Missile And Space Complex (TTMTR). Debris objects in space refer to the collection of defunct objects orbiting the Earth. Examples of debris include non-operational satellites, rocket bodies, and fragments generated from explosions, collisions, or faulty payload assembly.

Loading next visibility...
Identifier
22359, 1992-093AY
Orbit
LEO
Country
Flag of CISCIS
Related business
Manufacturer
Unknown
Mission
Spacecraft
Bus & Motor
Unknown
Mass
Unknown
Launch date (UTC)
1992-12-25 (33 years ago)
Launch vehicle
Unknown
Launch site
Tyuratam Missile And Space Complex (TTMTR)
Object type
Payload
Rocket body
Debris
Shape & HBR
Unknown shape, 0.1 m
Radar Cross Section
Small (<0.1 m²)

Expand to show TLE details & history
Last TLE update: 10 hours ago

TLE from 10 hours ago
0 SL-16 DEB
1 22359U 92093AY  25352.31300385  .00001383  00000-0  92879-3 0  9997
2 22359  70.7404 321.3934 0156707  25.2292  94.5501 13.96709886665804
Epoch: 2025-12-18T07:30Z
TLE epoch observation values (Epoch: 2025-12-18T07:30:43.532Z)
Latitude
53.65821°
Longitude
-86.65145°
Altitude
924.278 km
Speed
7.39 km/s
True Right ascension
07h 32m 48s
True Declination
53° 29' 52"
Sunlit
Object was in full shadow at epoch
Visualization orbit readout
Latitude
Unknown
Longitude
Unknown
Altitude
Unknown
Speed
Unknown
Apparent Right ascension
Unknown
Apparent Declination
Unknown
Sunlit
N/A
Visualization observer readout
Local Sidereal Time
16:20:47
Azimuth
Unknown
Elevation
Unknown
Doppler factor
Unknown
Orbital elements
Apogee altitude
1,017.281 km
Perigee altitude
789.075 km
Semi-major axis
7,281.315 km
Eccentricity
0.01567
Inclination
70.7404°
RAAN
321.3934°
Arg. of periapsis
25.2292°
True anomaly
96.3371°
Mean anomaly
94.5501°
Eccentric anomaly
95.44392°
Mean motion
3.49324 °/min
Orbital period
103.06 mins
BSTAR
0.00092879
Loading maneuver chart data...
Computing Atmospheric mass density...
Loading historical data...
Loading historical data...
Loading historical data...
Loading historical data...
Loading historical data...
Loading historical data...
Loading historical data...

Documentation

Showing up to 5 results
|